Temp
-8 -9 -9 -9 -9 -9 -9 -10 -10 -11 -11 -11 -11 -11 -11 -11 -12 -12 -12 -12 -12 -12 -12 -12 -12 -12 -12 -11 -11 -11 -11 -11 -10 -10 -11 -11 -11 -11 -11 -11 -11 -11 -11 -11
-9 -9 -9 -10 -10 -10 -11 -11 -12 -12 -12 -12 -12 -12 -13 -12 -13 -13 -13 -13 -13 -13 -13 -13 -13 -12 -12 -12 -12 -12 -11 -11 -11 -11 -11 -12 -12 -12 -11 -11 -11 -11 -11 -11
-9 -10 -11 -11 -11 -12 -12 -12 -12 -12 -12 -12 -12 -13 -13 -13 -13 -13 -13 -13 -13 -13 -13 -13 -13 -13 -13 -13 -13 -12 -12 -12 -12 -12 -12 -12 -12 -12 -12 -12 -11 -11 -11 -11
-11 -11 -11 -12 -12 -12 -13 -12 -13 -13 -12 -13 -13 -13 -14 -14 -14 -14 -14 -14 -14 -14 -13 -13 -13 -13 -13 -13 -13 -12 -12 -12 -12 -12 -12 -12 -11 -11 -12 -12 -11 -11 -11 -11
-11 -11 -12 -12 -13 -13 -13 -13 -13 -13 -13 -13 -14 -14 -14 -14 -14 -14 -14 -14 -14 -14 -14 -14 -14 -14 -14 -13 -13 -13 -13 -12 -12 -12 -12 -12 -12 -11 -12 -11 -12 -11 -11 -11
-11 -12 -12 -13 -13 -13 -13 -13 -13 -14 -14 -14 -14 -14 -14 -15 -15 -15 -15 -15 -15 -15 -14 -14 -14 -14 -14 -13 -13 -13 -13 -13 -12 -12 -12 -12 -12 -12 -11 -11 -11 -11 -11 -11
-12 -12 -12 -13 -13 -13 -13 -13 -13 -14 -14 -14 -15 -15 -15 -15 -15 -15 -15 -15 -15 -15 -14 -15 -15 -14 -14 -14 -13 -12 -12 -12 -12 -12 -12 -12 -12 -11 -11 -11 -11 -10 -11 -11
-12 -12 -13 -13 -14 -14 -14 -14 -14 -14 -15 -15 -15 -16 -16 -15 -15 -15 -15 -15 -15 -15 -14 -15 -15 -14 -14 -14 -13 -13 -12 -12 -12 -12 -12 -12 -12 -12 -12 -12 -12 -11 -11 -11
-12 -12 -13 -13 -13 -14 -14 -14 -14 -14 -15 -15 -15 -16 -15 -15 -15 -15 -15 -15 -15 -15 -15 -15 -14 -14 -14 -13 -13 -13 -13 -13 -13 -13 -13 -13 -13 -13 -12 -12 -12 -11 -11 -11
-13 -13 -13 -13 -14 -14 -14 -14 -14 -14 -15 -15 -15 -16 -15 -16 -16 -15 -15 -15 -15 -15 -15 -14 -14 -14 -14 -13 -13 -13 -13 -13 -12 -13 -12 -12 -13 -12 -12 -13 -12 -12 -12 -12
-13 -13 -13 -14 -14 -14 -14 -14 -15 -15 -15 -15 -15 -16 -15 -15 -15 -15 -15 -15 -15 -15 -14 -14 -14 -14 -13 -13 -13 -13 -13 -13 -13 -13 -13 -13 -13 -13 -13 -13 -12 -13 -13 -12
-13 -14 -14 -14 -14 -14 -14 -15 -15 -15 -15 -15 -16 -16 -16 -15 -15 -15 -15 -15 -15 -15 -15 -14 -14 -14 -14 -14 -13 -13 -13 -13 -13 -13 -13 -13 -13 -14 -13 -13 -13 -13 -12 -13
-14 -14 -14 -14 -14 -14 -15 -15 -15 -15 -15 -16 -16 -16 -17 -15 -16 -16 -15 -15 -15 -15 -15 -14 -14 -14 -14 -14 -14 -13 -13 -13 -13 -13 -13 -13 -12 -12 -12 -13 -13 -13 -13 -13
-14 -14 -14 -14 -15 -15 -15 -15 -15 -15 -15 -16 -16 -16 -16 -16 -16 -15 -15 -15 -15 -15 -15 -14 -14 -14 -14 -14 -14 -14 -13 -13 -13 -14 -14 -13 -12 -12 -12 -13 -14 -15 -15 -15
-14 -14 -14 -14 -14 -15 -15 -16 -16 -16 -16 -16 -16 -16 -16 -16 -16 -15 -15 -15 -15 -15 -15 -15 -14 -14 -14 -14 -14 -14 -14 -14 -14 -14 -14 -13 -12 -12 -13 -14 -15 -16 -16 -15
-15 -15 -15 -15 -15 -15 -16 -16 -16 -16 -17 -16 -16 -16 -16 -16 -16 -16 -15 -15 -15 -15 -15 -15 -15 -14 -14 -14 -14 -14 -14 -14 -14 -14 -14 -13 -13 -13 -14 -15 -15 -15 -15 -16
-15 -15 -15 -15 -15 -15 -16 -16 -16 -16 -17 -16 -16 -17 -17 -16 -16 -16 -15 -15 -15 -15 -15 -15 -14 -14 -14 -14 -14 -14 -13 -13 -13 -13 -13 -13 -13 -14 -14 -15 -15 -15 -15 -15
-15 -16 -15 -15 -16 -16 -16 -16 -16 -16 -17 -17 -17 -16 -16 -16 -16 -16 -15 -15 -16 -16 -15 -15 -15 -14 -14 -14 -14 -13 -12 -12 -13 -13 -13 -13 -14 -14 -14 -15 -15 -15 -15 -15
-16 -16 -16 -16 -16 -16 -16 -16 -17 -16 -17 -17 -17 -16 -16 -16 -16 -16 -16 -16 -15 -15 -15 -15 -15 -14 -14 -14 -13 -13 -12 -13 -13 -13 -13 -13 -14 -14 -14 -15 -15 -15 -15 -15
-16 -16 -16 -16 -16 -16 -16 -16 -16 -16 -16 -16 -16 -16 -16 -15 -15 -15 -15 -15 -15 -15 -15 -15 -15 -15 -14 -14 -14 -13 -13 -13 -13 -13 -13 -14 -14 -15 -15 -15 -15 -15 -15 -15
-16 -16 -16 -16 -16 -16 -16 -16 -16 -16 -16 -16 -16 -16 -16 -15 -15 -15 -15 -15 -15 -15 -15 -15 -15 -15 -14 -14 -13 -13 -13 -13 -13 -13 -13 -14 -14 -15 -15 -16 -16 -14 -14 -14
-17 -17 -17 -17 -16 -16 -16 -16 -17 -16 -16 -16 -16 -16 -15 -15 -15 -15 -15 -15 -15 -15 -15 -15 -15 -15 -14 -14 -14 -14 -14 -13 -13 -13 -13 -14 -14 -14 -15 -15 -15 -14 -14 -14
-17 -17 -17 -17 -17 -17 -16 -16 -16 -16 -16 -16 -16 -16 -15 -15 -15 -15 -14 -14 -15 -15 -15 -15 -15 -14 -14 -14 -14 -14 -13 -13 -13 -13 -14 -14 -14 -14 -15 -15 -14 -14 -14 -13
-18 -17 -17 -17 -17 -17 -17 -16 -16 -17 -16 -16 -16 -16 -15 -15 -15 -15 -14 -15 -15 -15 -15 -15 -15 -14 -14 -14 -13 -13 -13 -13 -13 -13 -13 -13 -14 -14 -13 -14 -14 -13 -14 -13
-18 -18 -17 -17 -17 -17 -17 -17 -17 -17 -17 -16 -16 -16 -16 -15 -15 -15 -14 -15 -15 -15 -15 -15 -15 -14 -14 -14 -13 -13 -11 -12 -13 -12 -13 -13 -13 -14 -14 -14 -14 -13 -13 -12
-18 -18 -18 -17 -17 -17 -17 -18 -18 -17 -17 -17 -17 -17 -16 -15 -15 -15 -15 -15 -15 -15 -15 -15 -15 -14 -14 -14 -13 -13 -12 -12 -12 -12 -12 -12 -13 -13 -13 -13 -13 -13 -12 -12
Height
5819 5817 5813 5811 5810 5809 5806 5805 5804 5801 5798 5797 5794 5793 5791 5790 5788 5786 5785 5784 5783 5782 5780 5780 5778 5777 5777 5776 5776 5775 5774 5773 5774 5774 5775 5777 5778 5779 5782 5784 5784 5787 5788 5788
5813 5810 5807 5804 5802 5800 5798 5797 5796 5794 5791 5789 5787 5787 5784 5782 5780 5778 5776 5775 5774 5772 5770 5769 5768 5766 5764 5764 5763 5763 5762 5761 5760 5761 5763 5765 5767 5769 5769 5772 5774 5774 5776 5776
5806 5804 5802 5799 5798 5795 5793 5792 5790 5789 5786 5782 5780 5780 5777 5775 5773 5770 5768 5766 5764 5763 5762 5760 5758 5756 5754 5752 5752 5751 5751 5750 5749 5750 5751 5752 5756 5758 5758 5760 5762 5762 5762 5764
5802 5799 5797 5795 5793 5792 5789 5787 5785 5781 5780 5778 5775 5774 5772 5768 5766 5764 5761 5757 5755 5752 5750 5749 5748 5745 5742 5740 5739 5739 5739 5737 5737 5737 5739 5739 5742 5745 5747 5746 5748 5750 5750 5752
5799 5796 5794 5791 5789 5788 5786 5783 5780 5777 5774 5772 5770 5768 5765 5763 5760 5757 5754 5751 5748 5745 5742 5740 5738 5735 5733 5731 5728 5727 5726 5726 5725 5726 5726 5726 5727 5729 5731 5734 5735 5737 5739 5740
5796 5794 5791 5787 5786 5784 5782 5779 5776 5773 5770 5767 5765 5763 5760 5757 5754 5751 5747 5744 5741 5739 5735 5732 5729 5727 5724 5721 5719 5718 5716 5714 5713 5712 5711 5712 5713 5714 5717 5719 5722 5724 5725 5727
5791 5789 5787 5785 5782 5780 5778 5775 5772 5769 5765 5763 5760 5758 5754 5751 5749 5746 5742 5739 5736 5731 5727 5725 5722 5719 5716 5712 5709 5707 5705 5703 5700 5699 5698 5697 5698 5699 5701 5703 5705 5708 5711 5714
5787 5786 5784 5781 5780 5777 5774 5771 5768 5764 5762 5759 5756 5753 5749 5745 5743 5740 5738 5734 5730 5725 5720 5716 5713 5710 5707 5704 5700 5697 5694 5691 5687 5684 5683 5682 5682 5682 5684 5685 5688 5691 5694 5697
5784 5783 5781 5779 5776 5774 5770 5768 5765 5760 5758 5756 5754 5750 5744 5741 5739 5736 5733 5729 5723 5716 5712 5709 5705 5701 5697 5694 5691 5687 5683 5679 5675 5672 5669 5668 5667 5667 5669 5669 5670 5672 5674 5679
5781 5779 5776 5774 5772 5770 5767 5764 5760 5757 5754 5751 5750 5745 5740 5737 5735 5733 5728 5724 5718 5712 5706 5701 5696 5691 5687 5683 5680 5677 5672 5667 5664 5659 5655 5654 5652 5650 5649 5649 5651 5651 5655 5660
5777 5775 5773 5771 5768 5765 5762 5759 5756 5753 5750 5746 5744 5741 5736 5733 5730 5726 5723 5718 5712 5706 5700 5694 5688 5681 5677 5674 5670 5666 5661 5656 5651 5646 5642 5638 5635 5632 5630 5629 5630 5632 5636 5642
5772 5771 5769 5767 5764 5761 5757 5754 5751 5748 5745 5741 5738 5736 5731 5727 5724 5720 5715 5710 5705 5700 5694 5688 5681 5675 5669 5665 5661 5656 5650 5643 5636 5631 5626 5623 5619 5613 5611 5612 5612 5613 5616 5620
5767 5765 5765 5762 5760 5757 5753 5749 5745 5743 5740 5737 5734 5731 5725 5722 5718 5714 5709 5705 5699 5694 5689 5682 5675 5668 5661 5656 5651 5645 5638 5632 5624 5616 5610 5607 5602 5597 5594 5593 5592 5593 5597 5601
5762 5760 5759 5757 5754 5752 5748 5744 5741 5738 5735 5732 5729 5727 5721 5718 5714 5710 5705 5700 5695 5688 5681 5675 5668 5660 5653 5646 5639 5633 5628 5619 5612 5605 5597 5591 5587 5582 5579 5575 5574 5576 5581 5587
5757 5755 5753 5750 5748 5746 5744 5740 5736 5732 5730 5728 5725 5720 5716 5712 5708 5702 5697 5692 5688 5681 5675 5668 5661 5655 5648 5640 5631 5625 5617 5609 5601 5594 5586 5580 5574 5569 5563 5560 5561 5567 5573 5581
5748 5748 5745 5745 5740 5739 5739 5735 5732 5728 5725 5722 5719 5716 5710 5706 5701 5696 5691 5686 5681 5675 5669 5662 5654 5647 5639 5631 5623 5616 5609 5601 5594 5587 5578 5572 5566 5560 5556 5554 5557 5563 5570 5577
5742 5740 5739 5740 5735 5732 5732 5730 5728 5724 5720 5717 5714 5710 5706 5702 5697 5691 5686 5681 5674 5669 5662 5655 5648 5640 5632 5624 5615 5607 5599 5592 5585 5577 5571 5567 5563 5559 5555 5552 5556 5560 5568 5575
5736 5733 5732 5732 5730 5729 5726 5723 5722 5720 5716 5711 5709 5705 5700 5696 5693 5685 5680 5675 5669 5663 5656 5649 5642 5634 5626 5617 5607 5596 5589 5582 5576 5570 5566 5562 5560 5560 5557 5556 5557 5563 5570 5577
5728 5726 5725 5724 5723 5723 5722 5718 5716 5714 5714 5708 5704 5700 5696 5692 5690 5684 5676 5670 5664 5657 5650 5642 5634 5627 5619 5609 5598 5587 5580 5574 5569 5563 5557 5554 5556 5557 5558 5559 5563 5567 5573 5578
5719 5719 5719 5717 5716 5714 5714 5711 5709 5709 5708 5703 5699 5696 5692 5688 5684 5680 5673 5667 5661 5652 5645 5638 5630 5623 5613 5602 5591 5583 5575 5569 5564 5560 5555 5555 5555 5557 5558 5561 5565 5570 5574 5579
5712 5711 5712 5710 5708 5707 5706 5704 5701 5702 5703 5697 5694 5691 5687 5683 5678 5673 5667 5662 5656 5648 5642 5634 5625 5617 5607 5596 5586 5578 5571 5566 5563 5559 5556 5556 5557 5558 5559 5560 5565 5572 5577 5584
5703 5703 5703 5702 5701 5699 5698 5696 5696 5695 5694 5690 5688 5685 5683 5679 5675 5669 5663 5658 5652 5645 5639 5631 5624 5615 5603 5592 5584 5578 5572 5567 5563 5559 5556 5557 5559 5559 5562 5563 5568 5575 5580 5587
5695 5695 5695 5695 5694 5691 5689 5689 5687 5687 5687 5686 5684 5680 5677 5675 5671 5666 5661 5655 5649 5642 5635 5628 5621 5612 5600 5591 5584 5578 5573 5569 5567 5564 5561 5562 5562 5565 5569 5572 5570 5580 5583 5588
5685 5686 5685 5684 5685 5682 5681 5681 5680 5679 5678 5676 5676 5674 5672 5670 5667 5662 5657 5652 5645 5639 5632 5626 5619 5610 5599 5590 5583 5576 5573 5573 5570 5569 5567 5567 5569 5572 5575 5576 5581 5583 5586 5589
5677 5677 5675 5674 5674 5674 5674 5673 5672 5669 5669 5668 5667 5666 5666 5665 5662 5658 5654 5649 5643 5637 5630 5624 5618 5609 5599 5593 5584 5577 5575 5576 5577 5572 5572 5572 5572 5575 5579 5581 5584 5588 5592 5597
5667 5668 5664 5661 5664 5665 5666 5665 5662 5662 5662 5660 5660 5659 5658 5658 5657 5654 5650 5646 5640 5636 5629 5624 5618 5610 5602 5595 5588 5584 5581 5580 5579 5578 5579 5580 5580 5582 5585 5587 5589 5592 5596 5601
Wind_Speed
27 30 32 33 34 34 35 36 33 33 36 36 37 37 37 37 37 36 35 35 37 39 40 41 43 45 45 46 46 47 50 52 53 53 53 52 50 48 44 42 41 39 38 40
29 30 29 29 29 28 27 25 26 26 28 29 30 28 29 30 31 31 31 32 33 36 39 40 41 43 44 45 46 47 49 52 54 54 53 51 50 48 48 44 44 45 42 43
28 27 22 21 20 20 20 20 20 20 22 25 26 23 24 24 25 28 30 31 33 35 37 39 41 43 45 46 46 47 47 50 51 51 51 51 52 52 53 49 45 46 47 46
22 21 20 18 17 18 19 19 21 23 23 22 23 23 22 24 26 26 28 30 32 34 36 36 36 38 41 43 45 44 44 47 46 48 53 56 54 55 53 51 48 44 47 48
20 17 17 17 18 19 20 19 20 22 22 22 22 22 21 22 22 25 28 30 30 30 30 29 29 31 33 33 36 40 40 43 46 49 50 51 53 54 52 50 47 47 46 48
17 16 17 19 19 17 18 18 20 19 19 19 20 21 21 23 24 25 26 27 28 29 30 32 32 32 33 36 35 35 36 39 42 44 50 52 51 51 51 49 50 49 52 55
19 17 17 17 18 18 18 19 21 20 18 18 14 16 21 23 21 22 24 25 29 33 35 33 32 33 36 37 39 35 35 40 44 46 48 49 49 49 49 51 52 53 52 56
19 18 18 18 17 18 19 22 22 21 16 14 15 20 22 23 21 22 25 28 34 37 37 33 34 33 34 36 38 39 43 46 48 50 49 53 55 55 55 54 54 56 56 56
18 17 16 16 17 19 22 22 23 22 17 13 13 17 23 21 21 25 27 30 32 32 32 33 35 38 38 39 40 41 43 39 42 45 47 49 53 54 56 60 61 59 59 58
17 18 18 19 20 21 22 23 22 21 19 15 12 17 20 20 22 23 25 26 28 28 27 30 36 39 41 42 42 42 43 41 41 44 46 48 52 54 58 58 58 56 55 53
18 18 21 21 21 23 23 22 22 19 19 19 17 18 19 20 21 24 27 28 29 28 30 33 33 32 38 40 42 42 42 43 41 41 42 46 48 54 59 60 58 55 53 55
19 19 18 20 22 23 24 24 21 20 20 19 20 17 19 21 25 28 34 33 31 32 32 32 33 30 31 35 40 43 45 42 41 39 41 42 44 49 51 47 48 51 50 48
19 19 19 22 23 24 26 26 24 21 19 18 20 20 23 25 28 31 33 33 33 34 32 33 34 34 33 35 39 42 45 43 39 43 47 41 39 44 50 49 49 48 51 47
20 23 24 26 25 23 26 28 24 21 21 19 21 20 25 27 29 30 31 31 33 34 35 33 36 37 39 39 38 39 42 45 44 46 42 39 42 46 44 49 47 39 35 41
21 23 25 28 29 25 23 25 25 23 22 22 22 25 28 29 30 33 36 34 34 34 35 35 36 38 40 41 38 37 40 42 43 36 39 39 35 37 35 28 25 27 28 30
23 24 25 25 31 27 22 25 24 22 22 23 26 27 32 33 34 36 38 37 34 34 34 35 38 40 42 44 40 38 39 39 38 36 40 32 26 20 17 17 15 16 22 20
25 25 26 21 26 29 25 24 22 23 24 27 28 28 30 31 33 35 34 34 36 36 37 37 37 40 42 46 42 40 38 37 36 34 35 26 14 8 4 5 12 18 18 17
23 25 25 23 23 24 26 24 23 22 24 27 27 29 31 31 30 36 36 36 37 36 36 36 37 39 44 48 44 41 35 34 33 31 25 21 9 4 5 9 16 18 19 23
24 24 25 25 26 26 21 26 24 24 20 24 26 27 30 31 30 31 35 36 35 34 35 38 40 42 47 47 43 36 30 31 29 20 21 7 4 10 9 11 16 23 21 23
25 24 25 27 28 29 25 25 25 24 22 23 25 25 29 29 27 28 31 31 32 35 37 38 39 41 47 46 43 30 33 27 21 21 10 3 3 12 11 15 18 20 21 23
26 26 26 27 29 29 28 29 29 26 24 24 24 23 26 24 26 27 30 33 33 35 36 39 40 43 46 45 33 31 27 19 13 19 5 7 9 12 15 17 26 25 25 26
28 28 28 29 30 32 31 32 30 27 24 25 23 22 22 23 24 27 31 33 35 35 36 39 39 43 46 38 27 20 25 14 11 7 5 17 9 16 20 26 31 30 31 29
29 29 31 31 30 33 34 32 31 27 23 22 21 22 22 22 23 26 30 34 36 37 37 39 39 43 45 32 24 21 18 9 7 13 13 9 12 18 19 23 30 26 32 30
29 31 32 35 32 34 36 36 35 30 27 27 23 21 23 23 23 27 31 34 37 38 37 37 38 42 40 32 28 23 10 9 8 7 4 14 23 26 17 22 26 18 26 24
28 30 34 38 38 38 38 38 33 32 29 28 28 24 22 22 24 27 30 33 37 37 36 36 37 41 30 26 24 18 3 6 7 2 13 16 17 12 20 16 27 25 21 26
28 31 38 43 42 40 38 36 34 31 28 27 27 26 25 23 24 27 30 32 35 35 35 33 34 39 23 26 23 17 8 2 4 15 14 14 17 26 26 27 27 29 34 33
Wind_Direction
303 300 296 294 292 290 289 289 289 288 286 284 285 285 285 285 284 283 281 277 275 274 272 270 269 269 268 267 268 266 266 266 264 262 262 263 266 267 267 267 266 261 259 258
302 298 299 298 298 297 295 297 297 295 292 291 287 286 282 281 279 278 276 274 271 270 271 271 269 268 268 267 265 262 261 261 263 260 259 260 261 265 267 266 268 267 263 261
309 309 310 306 306 307 310 311 309 300 296 294 293 291 290 287 285 283 281 279 276 274 274 275 276 275 272 270 268 266 263 259 259 260 259 257 257 262 266 269 269 263 262 257
319 319 317 318 319 315 315 314 309 305 304 298 296 295 294 291 291 291 290 288 286 284 282 278 274 273 273 274 273 270 265 262 255 256 257 258 259 257 258 262 265 256 256 257
326 325 321 316 318 318 316 316 309 307 306 303 298 297 292 292 292 292 290 292 292 293 290 283 279 276 276 275 272 270 270 267 261 256 255 257 258 258 258 253 254 254 254 256
324 328 328 323 325 323 322 319 314 312 305 297 294 296 296 297 298 300 301 302 301 298 292 287 284 279 273 272 271 267 263 262 262 262 259 256 257 256 253 254 250 248 251 255
329 337 333 329 328 327 326 326 329 325 314 305 301 302 300 297 297 296 301 300 302 300 297 288 288 285 284 282 279 273 270 271 268 262 259 257 255 255 254 253 254 252 247 247
326 334 335 332 330 325 328 328 329 326 316 311 297 304 303 296 292 295 300 302 303 298 293 288 281 283 283 282 281 280 278 278 273 271 266 260 260 259 258 258 259 260 253 248
326 331 328 327 326 326 328 327 330 326 312 306 304 303 292 297 294 300 301 304 310 309 299 292 292 287 281 279 282 282 282 281 276 272 270 267 266 263 262 263 263 261 258 254
320 321 327 328 326 322 320 322 327 326 319 304 299 312 309 292 288 297 302 308 309 314 310 302 293 285 283 281 284 287 291 282 277 273 268 267 266 261 261 261 257 257 252 249
314 318 320 322 324 321 321 322 321 323 320 310 301 305 303 307 304 310 316 317 318 323 324 321 319 299 282 281 283 290 297 293 287 283 275 271 266 261 261 262 260 260 260 252
305 308 311 314 320 324 324 323 322 322 319 314 312 310 308 309 315 317 323 323 321 321 321 325 329 319 297 287 286 296 300 303 297 287 279 276 274 268 269 268 267 260 263 258
299 300 306 307 312 317 321 321 322 319 317 315 313 317 313 318 322 320 317 321 320 315 317 324 326 330 325 306 298 298 304 305 297 297 298 292 286 279 282 277 273 259 256 252
295 297 304 306 308 315 318 316 319 317 316 321 311 311 301 307 308 311 313 315 319 316 318 320 324 329 329 324 310 306 310 310 304 304 303 293 282 283 281 275 271 257 247 235
292 296 301 303 307 313 314 310 313 316 313 315 310 308 308 305 310 314 317 318 316 316 318 320 322 325 325 326 317 311 314 313 310 310 308 304 302 292 282 266 251 234 231 224
294 297 297 306 306 308 315 310 311 311 310 310 311 311 310 309 310 313 314 315 314 318 320 321 321 321 324 327 323 314 311 312 308 307 312 310 312 298 284 272 237 226 217 218
293 293 294 301 299 305 310 308 308 307 309 315 318 312 307 305 308 310 316 318 320 322 323 320 319 319 324 326 324 319 313 312 309 310 310 311 311 288 308 242 198 182 186 186
284 283 290 294 297 299 304 303 303 303 304 307 310 307 306 308 317 316 321 322 322 321 322 322 320 320 323 330 327 324 317 317 315 315 301 303 298 230 107 142 149 161 177 187
277 279 287 294 297 300 304 299 299 297 302 296 303 302 303 308 314 315 319 320 321 325 327 326 325 325 329 333 328 325 324 323 322 315 309 272 268 187 140 151 164 164 177 176
270 275 284 293 295 302 306 300 297 295 296 290 293 298 301 310 318 322 320 323 327 328 328 329 328 331 336 332 333 332 327 329 328 338 343 64 112 170 165 168 178 170 165 162
266 271 280 286 290 295 301 301 300 301 300 293 293 298 303 318 328 335 332 335 334 330 330 331 334 336 336 338 340 336 337 336 337 337 304 129 147 147 152 147 157 160 155 155
264 270 278 282 288 293 298 299 300 300 300 292 291 296 302 316 326 330 333 338 339 333 331 333 338 340 341 340 344 352 3 351 13 26 108 126 146 145 155 148 152 150 152 155
261 265 271 275 282 288 292 298 302 298 295 292 291 294 298 309 319 323 329 336 339 336 333 336 340 344 343 346 342 352 0 34 84 15 62 97 119 139 135 149 145 154 155 150
264 268 272 274 279 284 293 298 298 297 292 291 291 286 288 297 312 318 323 333 336 337 335 338 343 346 349 345 341 341 345 90 72 50 89 147 138 124 145 158 163 155 160 154
265 267 268 271 276 280 286 290 292 292 287 286 290 289 287 295 303 313 319 328 331 335 334 339 346 349 356 354 358 13 64 136 78 127 137 117 156 143 152 145 154 143 149 159
269 270 270 270 274 278 281 287 282 279 284 284 284 289 289 291 297 307 312 321 325 330 333 340 348 352 1 4 16 40 42 76 65 134 141 124 128 137 136 135 142 143 137 135